Location: Sweet Grass
(48.9965°N, 111.9649°W)
Time: 06:17:59
(UTC+00:00)

EO-79 - Pass Details

Date: 30 March 2023
Orbit: 578 x 593 km, 98.0° (Epoch: 03 June)

Event Time Altitude Azimuth Distance (km) Brightness Sun altitude
Rises 10:23:33 0° 7° (N) 2,837 ? -25.5°
Reaches altitude 10° 10:25:49 10° 0° (N) 1,928 ? -25.3°
Enters shadow 10:28:32 32° 330° (NNW) 1,030 ? -24.9°
